JES3102 SABE-SACO

Flight info

Callsign JES3102
Flight time 1h 6m
Altitude 30000
Route ATOVO4B ATOVO UW5 ASISA ASISA1U
Aircraft A320/M-SDE3FGHIRWY/LB1

Departure

Time 2026-05-07 22:00
Airport Aeroparque Jorge Newbery (SABE)

Arrival

Time 2026-05-07 23:07
Airport Ingeniero Aeronáutico Ambrosio L.V. Taravella International Airport (SACO)
Time Latitude Longitude Altitude Speed Heading
2026-05-07 21:21 -34.55903 -58.41244 26 ft 0 kts 265°
2026-05-07 21:51 -34.55904 -58.41240 29 ft 2 kts 229°
2026-05-07 21:51 -34.55890 -58.41230 31 ft 2 kts 213°
2026-05-07 21:52 -34.55878 -58.41217 31 ft 2 kts 278°
2026-05-07 21:52 -34.55884 -58.41199 29 ft 2 kts 307°
2026-05-07 21:52 -34.55891 -58.41188 30 ft 1 kts 309°
2026-05-07 21:52 -34.55892 -58.41186 30 ft 0 kts 308°
2026-05-07 21:55 -34.55883 -58.41199 30 ft 5 kts 308°
2026-05-07 21:55 -34.55860 -58.41237 28 ft 7 kts 306°
2026-05-07 21:55 -34.55868 -58.41284 29 ft 8 kts 212°
2026-05-07 21:55 -34.55921 -58.41306 31 ft 8 kts 155°
2026-05-07 21:56 -34.55959 -58.41242 31 ft 10 kts 126°
2026-05-07 21:56 -34.56004 -58.41168 27 ft 12 kts 126°
2026-05-07 21:56 -34.56058 -58.41087 29 ft 13 kts 127°
2026-05-07 21:56 -34.56115 -58.40994 29 ft 13 kts 126°
2026-05-07 21:57 -34.56168 -58.40896 29 ft 12 kts 117°
2026-05-07 21:57 -34.56190 -58.40798 27 ft 13 kts 124°
2026-05-07 21:57 -34.56242 -58.40703 28 ft 14 kts 124°
2026-05-07 21:57 -34.56291 -58.40615 28 ft 12 kts 124°
2026-05-07 21:58 -34.56352 -58.40537 28 ft 13 kts 137°
2026-05-07 21:58 -34.56411 -58.40473 26 ft 12 kts 138°
2026-05-07 21:58 -34.56472 -58.40407 27 ft 10 kts 138°
2026-05-07 21:58 -34.56531 -58.40406 26 ft 11 kts 226°
2026-05-07 21:59 -34.56532 -58.40490 29 ft 12 kts 303°
2026-05-07 21:59 -34.56515 -58.40520 27 ft 0 kts 303°
2026-05-07 21:59 -34.56476 -58.40591 28 ft 37 kts 303°
2026-05-07 21:59 -34.56204 -58.41079 27 ft 99 kts 304°
2026-05-07 22:00 -34.55728 -58.41932 36 ft 142 kts 302°
2026-05-07 22:00 -34.55176 -58.42926 571 ft 142 kts 299°
2026-05-07 22:00 -34.54624 -58.43921 1158 ft 144 kts 302°
2026-05-07 22:00 -34.53885 -58.44834 1496 ft 164 kts 312°
2026-05-07 22:01 -34.52819 -58.45609 1730 ft 195 kts 329°
2026-05-07 22:01 -34.51402 -58.46026 1964 ft 226 kts 350°
2026-05-07 22:01 -34.49750 -58.45828 2257 ft 256 kts 12°
2026-05-07 22:01 -34.48059 -58.44821 2700 ft 283 kts 29°
2026-05-07 22:02 -34.46377 -58.43544 3520 ft 287 kts 30°
2026-05-07 22:02 -34.44666 -58.42251 4355 ft 293 kts 30°
2026-05-07 22:02 -34.42923 -58.40939 5216 ft 295 kts 29°
2026-05-07 22:02 -34.41190 -58.39634 6255 ft 290 kts 28°
2026-05-07 22:03 -34.39460 -58.38401 7195 ft 286 kts 20°
2026-05-07 22:03 -34.37578 -58.37761 8103 ft 278 kts
2026-05-07 22:03 -34.35672 -58.37861 8990 ft 273 kts 345°
2026-05-07 22:03 -34.33909 -58.38644 9839 ft 270 kts 329°
2026-05-07 22:04 -34.32311 -58.39919 10267 ft 285 kts 324°
2026-05-07 22:04 -34.30611 -58.41335 10438 ft 308 kts 324°
2026-05-07 22:04 -34.28812 -58.42836 10883 ft 319 kts 325°
2026-05-07 22:04 -34.26973 -58.44369 11484 ft 324 kts 325°
2026-05-07 22:05 -34.25094 -58.45930 12091 ft 330 kts 325°
2026-05-07 22:05 -34.23196 -58.47499 12783 ft 333 kts 325°
2026-05-07 22:05 -34.21269 -58.49088 13384 ft 338 kts 324°
2026-05-07 22:05 -34.19468 -58.50886 14057 ft 337 kts 311°
2026-05-07 22:06 -34.18235 -58.53282 14676 ft 339 kts 292°
2026-05-07 22:06 -34.17772 -58.56068 15357 ft 342 kts 275°
2026-05-07 22:06 -34.17725 -58.58931 16062 ft 339 kts 278°
2026-05-07 22:06 -34.17378 -58.61725 16779 ft 334 kts 285°
2026-05-07 22:07 -34.16826 -58.64435 17523 ft 331 kts 289°
2026-05-07 22:07 -34.16192 -58.67094 18232 ft 329 kts 290°
2026-05-07 22:07 -34.15548 -58.69745 18794 ft 330 kts 291°
2026-05-07 22:07 -34.14922 -58.72422 19326 ft 333 kts 291°
2026-05-07 22:08 -34.14320 -58.75129 19819 ft 336 kts 291°
2026-05-07 22:08 -34.13729 -58.77912 20299 ft 339 kts 291°
2026-05-07 22:08 -34.13156 -58.80688 20767 ft 343 kts 291°
2026-05-07 22:08 -34.12587 -58.83492 21235 ft 346 kts 292°
2026-05-07 22:09 -34.12017 -58.86323 21702 ft 348 kts 292°
2026-05-07 22:09 -34.11441 -58.89173 22152 ft 351 kts 293°
2026-05-07 22:09 -34.10856 -58.92043 22596 ft 354 kts 293°
2026-05-07 22:09 -34.10261 -58.94938 23046 ft 356 kts 294°
2026-05-07 22:10 -34.09662 -58.97846 23443 ft 359 kts 294°
2026-05-07 22:10 -34.09058 -59.00778 23810 ft 362 kts 294°
2026-05-07 22:10 -34.08447 -59.03731 24213 ft 364 kts 294°
2026-05-07 22:10 -34.07830 -59.06705 24560 ft 367 kts 295°
2026-05-07 22:11 -34.07209 -59.09699 24914 ft 369 kts 295°
2026-05-07 22:11 -34.06541 -59.12687 25271 ft 366 kts 299°
2026-05-07 22:11 -34.05530 -59.15454 25628 ft 357 kts 308°
2026-05-07 22:11 -34.04153 -59.17902 25969 ft 350 kts 317°
2026-05-07 22:12 -34.02583 -59.20149 26301 ft 352 kts 317°
2026-05-07 22:12 -34.01006 -59.22411 26634 ft 354 kts 317°
2026-05-07 22:12 -33.99421 -59.24694 26998 ft 356 kts 317°
2026-05-07 22:12 -33.97831 -59.26987 27359 ft 358 kts 317°
2026-05-07 22:13 -33.96231 -59.29288 27704 ft 359 kts 317°
2026-05-07 22:13 -33.94618 -59.31603 28078 ft 361 kts 317°
2026-05-07 22:13 -33.92998 -59.33930 28447 ft 364 kts 317°
2026-05-07 22:13 -33.91368 -59.36273 28789 ft 366 kts 317°
2026-05-07 22:14 -33.89730 -59.38628 29137 ft 368 kts 317°
2026-05-07 22:14 -33.88083 -59.40997 29512 ft 369 kts 317°
2026-05-07 22:14 -33.86435 -59.43364 29695 ft 369 kts 318°
2026-05-07 22:14 -33.84804 -59.45712 29710 ft 361 kts 318°
2026-05-07 22:15 -33.82146 -59.49532 29720 ft 356 kts 318°
2026-05-07 22:15 -33.78953 -59.54079 29730 ft 356 kts 318°
2026-05-07 22:16 -33.75766 -59.58620 29721 ft 355 kts 318°
2026-05-07 22:16 -33.72571 -59.63169 29735 ft 358 kts 318°
2026-05-07 22:17 -33.69365 -59.67747 29721 ft 359 kts 318°
2026-05-07 22:17 -33.66140 -59.72330 29725 ft 360 kts 318°
2026-05-07 22:18 -33.61283 -59.79215 29733 ft 361 kts 318°
2026-05-07 22:19 -33.58043 -59.83807 29744 ft 361 kts 318°
2026-05-07 22:19 -33.54795 -59.88395 29727 ft 361 kts 319°
2026-05-07 22:20 -33.51536 -59.92988 29747 ft 363 kts 317°
2026-05-07 22:20 -33.48265 -59.97605 29743 ft 362 kts 317°
2026-05-07 22:21 -33.45048 -60.02152 29760 ft 362 kts 317°
2026-05-07 22:21 -33.41756 -60.06774 29766 ft 366 kts 317°
2026-05-07 22:22 -33.38452 -60.11419 29767 ft 366 kts 317°
2026-05-07 22:22 -33.35142 -60.16064 29771 ft 367 kts 318°
2026-05-07 22:23 -33.31821 -60.20713 29777 ft 368 kts 316°
2026-05-07 22:23 -33.28495 -60.25368 29773 ft 368 kts 316°
2026-05-07 22:24 -33.25165 -60.30025 29771 ft 369 kts 316°
2026-05-07 22:24 -33.21834 -60.34685 29772 ft 369 kts 316°
2026-05-07 22:25 -33.18494 -60.39346 29757 ft 370 kts 316°
2026-05-07 22:25 -33.15140 -60.44014 29765 ft 371 kts 316°
2026-05-07 22:26 -33.11770 -60.48694 29770 ft 373 kts 316°
2026-05-07 22:26 -33.08357 -60.53429 29769 ft 375 kts 316°
2026-05-07 22:27 -33.04973 -60.58121 29769 ft 376 kts 316°
2026-05-07 22:27 -33.01558 -60.62858 29775 ft 378 kts 316°
2026-05-07 22:28 -32.94603 -60.72480 29800 ft 379 kts 316°
2026-05-07 22:29 -32.91156 -60.77244 29802 ft 381 kts 312°
2026-05-07 22:29 -32.88288 -60.82607 29789 ft 386 kts 304°
2026-05-07 22:30 -32.85569 -60.88135 29787 ft 388 kts 304°
2026-05-07 22:30 -32.82832 -60.93669 29795 ft 388 kts 304°
2026-05-07 22:31 -32.80088 -60.99206 29806 ft 389 kts 304°
2026-05-07 22:31 -32.77341 -61.04747 29845 ft 389 kts 302°
2026-05-07 22:32 -32.74579 -61.10318 29795 ft 393 kts 301°
2026-05-07 22:32 -32.71788 -61.15936 29782 ft 396 kts 302°
2026-05-07 22:33 -32.68996 -61.21543 29815 ft 393 kts 303°
2026-05-07 22:33 -32.66212 -61.27114 29840 ft 392 kts 303°
2026-05-07 22:34 -32.63438 -61.32675 29848 ft 391 kts 303°
2026-05-07 22:34 -32.60662 -61.38241 29811 ft 393 kts 301°
2026-05-07 22:35 -32.57850 -61.43840 29798 ft 397 kts 301°
2026-05-07 22:35 -32.55016 -61.49479 29799 ft 399 kts 301°
2026-05-07 22:36 -32.52169 -61.55148 29811 ft 401 kts 301°
2026-05-07 22:36 -32.49312 -61.60835 29818 ft 402 kts 301°
2026-05-07 22:37 -32.46441 -61.66530 29823 ft 403 kts 301°
2026-05-07 22:37 -32.43567 -61.72225 29831 ft 403 kts 301°
2026-05-07 22:38 -32.40688 -61.77931 29839 ft 404 kts 301°
2026-05-07 22:38 -32.37795 -61.83635 29830 ft 404 kts 300°
2026-05-07 22:39 -32.34893 -61.89339 29832 ft 405 kts 300°
2026-05-07 22:39 -32.31978 -61.95088 29860 ft 415 kts 292°
2026-05-07 22:39 -32.30481 -61.98059 29859 ft 426 kts 292°
2026-05-07 22:40 -32.28950 -62.01087 29857 ft 431 kts 292°
2026-05-07 22:40 -32.25849 -62.07181 29866 ft 433 kts 293°
2026-05-07 22:41 -32.22703 -62.13316 29858 ft 433 kts 293°
2026-05-07 22:41 -32.19616 -62.19342 29869 ft 431 kts 293°
2026-05-07 22:42 -32.16518 -62.25406 29827 ft 432 kts 291°
2026-05-07 22:42 -32.13404 -62.31491 29837 ft 435 kts 291°
2026-05-07 22:43 -32.10245 -62.37649 29849 ft 437 kts 291°
2026-05-07 22:43 -32.07097 -62.43780 29854 ft 437 kts 291°
2026-05-07 22:44 -32.03935 -62.49914 29862 ft 438 kts 291°
2026-05-07 22:44 -32.00770 -62.56050 29857 ft 439 kts 290°
2026-05-07 22:45 -31.97599 -62.62194 29872 ft 439 kts 290°
2026-05-07 22:45 -31.94417 -62.68339 29879 ft 439 kts 290°
2026-05-07 22:46 -31.91237 -62.74478 29888 ft 439 kts 291°
2026-05-07 22:46 -31.88060 -62.80598 29753 ft 435 kts 291°
2026-05-07 22:46 -31.86494 -62.83597 29427 ft 426 kts 290°
2026-05-07 22:47 -31.84954 -62.86535 29158 ft 419 kts 290°
2026-05-07 22:47 -31.83435 -62.89438 28887 ft 416 kts 290°
2026-05-07 22:47 -31.81928 -62.92330 28622 ft 413 kts 290°
2026-05-07 22:47 -31.80935 -62.94237 28438 ft 412 kts 290°
2026-05-07 22:48 -31.79445 -62.97102 28182 ft 410 kts 290°
2026-05-07 22:48 -31.77985 -62.99905 27910 ft 406 kts 290°
2026-05-07 22:48 -31.76516 -63.02715 27478 ft 402 kts 290°
2026-05-07 22:48 -31.75058 -63.05505 27028 ft 399 kts 290°
2026-05-07 22:49 -31.73610 -63.08275 26598 ft 396 kts 290°
2026-05-07 22:49 -31.72203 -63.10960 26153 ft 394 kts 289°
2026-05-07 22:49 -31.70771 -63.13690 25720 ft 391 kts 289°
2026-05-07 22:49 -31.69356 -63.16393 25342 ft 388 kts 289°
2026-05-07 22:50 -31.67946 -63.19082 24922 ft 386 kts 289°
2026-05-07 22:50 -31.66507 -63.21739 24483 ft 390 kts 294°
2026-05-07 22:50 -31.64850 -63.24277 24059 ft 391 kts 295°
2026-05-07 22:50 -31.63184 -63.26800 23613 ft 391 kts 295°
2026-05-07 22:51 -31.61518 -63.29320 23110 ft 390 kts 295°
2026-05-07 22:51 -31.59863 -63.31823 22640 ft 387 kts 296°
2026-05-07 22:51 -31.58216 -63.34310 22178 ft 384 kts 296°
2026-05-07 22:51 -31.56582 -63.36776 21699 ft 382 kts 297°
2026-05-07 22:52 -31.54959 -63.39227 21221 ft 379 kts 297°
2026-05-07 22:52 -31.53350 -63.41656 20747 ft 376 kts 297°
2026-05-07 22:52 -31.51751 -63.44072 20230 ft 374 kts 298°
2026-05-07 22:52 -31.50163 -63.46467 19786 ft 371 kts 298°
2026-05-07 22:53 -31.48585 -63.48844 19306 ft 369 kts 299°
2026-05-07 22:53 -31.47016 -63.51207 18831 ft 366 kts 299°
2026-05-07 22:53 -31.45456 -63.53551 18364 ft 364 kts 300°
2026-05-07 22:53 -31.43906 -63.55883 17842 ft 361 kts 300°
2026-05-07 22:54 -31.42372 -63.58186 17380 ft 356 kts 300°
2026-05-07 22:54 -31.40858 -63.60457 16922 ft 352 kts 300°
2026-05-07 22:54 -31.39360 -63.62706 16470 ft 348 kts 300°
2026-05-07 22:54 -31.37880 -63.64929 16016 ft 344 kts 300°
2026-05-07 22:55 -31.36415 -63.67129 15586 ft 341 kts 300°
2026-05-07 22:55 -31.34967 -63.69303 15154 ft 337 kts 300°
2026-05-07 22:55 -31.33532 -63.71455 14722 ft 334 kts 300°
2026-05-07 22:55 -31.32111 -63.73589 14296 ft 331 kts 301°
2026-05-07 22:56 -31.30699 -63.75704 13871 ft 329 kts 301°
2026-05-07 22:56 -31.29293 -63.77808 13414 ft 327 kts 301°
2026-05-07 22:56 -31.27895 -63.79899 13001 ft 325 kts 301°
2026-05-07 22:56 -31.26511 -63.81972 12586 ft 322 kts 301°
2026-05-07 22:57 -31.25136 -63.84029 12181 ft 320 kts 301°
2026-05-07 22:57 -31.23768 -63.86074 11778 ft 318 kts 301°
2026-05-07 22:57 -31.22408 -63.88105 11381 ft 317 kts 300°
2026-05-07 22:57 -31.21056 -63.90129 10990 ft 315 kts 300°
2026-05-07 22:58 -31.19716 -63.92137 10653 ft 313 kts 300°
2026-05-07 22:58 -31.18380 -63.94139 10262 ft 312 kts 300°
2026-05-07 22:58 -31.17056 -63.96109 10097 ft 304 kts 300°
2026-05-07 22:58 -31.15761 -63.98027 9906 ft 297 kts 300°
2026-05-07 22:59 -31.14484 -63.99927 9432 ft 303 kts 300°
2026-05-07 22:59 -31.13191 -64.01856 9151 ft 298 kts 300°
2026-05-07 22:59 -31.11915 -64.03752 8839 ft 296 kts 300°
2026-05-07 22:59 -31.10656 -64.05622 8620 ft 289 kts 301°
2026-05-07 23:00 -31.09440 -64.07422 8477 ft 273 kts 300°
2026-05-07 23:00 -31.08522 -64.09244 8196 ft 251 kts 283°
2026-05-07 23:00 -31.08140 -64.11163 7763 ft 238 kts 266°
2026-05-07 23:00 -31.08188 -64.13060 7260 ft 233 kts 259°
2026-05-07 23:01 -31.08296 -64.14938 6748 ft 233 kts 260°
2026-05-07 23:01 -31.08398 -64.16844 6162 ft 237 kts 261°
2026-05-07 23:01 -31.08494 -64.18722 5869 ft 225 kts 259°
2026-05-07 23:01 -31.08954 -64.20328 5644 ft 202 kts 226°
2026-05-07 23:02 -31.10094 -64.21129 5383 ft 190 kts 190°
2026-05-07 23:02 -31.11386 -64.21161 5173 ft 182 kts 182°
2026-05-07 23:02 -31.12632 -64.21135 4921 ft 175 kts 182°
2026-05-07 23:02 -31.13829 -64.21114 4696 ft 169 kts 183°
2026-05-07 23:03 -31.14988 -64.21094 4468 ft 164 kts 182°
2026-05-07 23:03 -31.16108 -64.21076 4249 ft 158 kts 182°
2026-05-07 23:03 -31.17189 -64.21058 4041 ft 153 kts 182°
2026-05-07 23:03 -31.18240 -64.21041 3851 ft 148 kts 182°
2026-05-07 23:04 -31.19276 -64.21024 3647 ft 146 kts 182°
2026-05-07 23:04 -31.20283 -64.21008 3457 ft 144 kts 182°
2026-05-07 23:04 -31.21284 -64.20995 3253 ft 144 kts 182°
2026-05-07 23:04 -31.22281 -64.20979 3056 ft 143 kts 181°
2026-05-07 23:05 -31.23277 -64.20961 2854 ft 143 kts 181°
2026-05-07 23:05 -31.24273 -64.20947 2677 ft 144 kts 182°
2026-05-07 23:05 -31.25269 -64.20930 2476 ft 143 kts 181°
2026-05-07 23:05 -31.26266 -64.20915 2283 ft 143 kts 180°
2026-05-07 23:06 -31.27262 -64.20902 2113 ft 143 kts 179°
2026-05-07 23:06 -31.28259 -64.20879 1890 ft 143 kts 180°
2026-05-07 23:06 -31.29249 -64.20865 1709 ft 142 kts 179°
2026-05-07 23:06 -31.30219 -64.20850 1621 ft 129 kts 179°
2026-05-07 23:07 -31.30946 -64.20836 1617 ft 80 kts 179°
2026-05-07 23:07 -31.31385 -64.20830 1616 ft 48 kts 179°
2026-05-07 23:07 -31.31628 -64.20834 1618 ft 22 kts 197°
2026-05-07 23:07 -31.31726 -64.20892 1617 ft 14 kts 210°
2026-05-07 23:08 -31.31772 -64.20922 1613 ft 6 kts 212°
2026-05-07 23:08 -31.31800 -64.20972 1616 ft 9 kts 246°
2026-05-07 23:08 -31.31782 -64.21037 1618 ft 10 kts 323°
2026-05-07 23:08 -31.31737 -64.21081 1613 ft 6 kts 315°
2026-05-07 23:09 -31.31694 -64.21101 1617 ft 8 kts 357°
2026-05-07 23:09 -31.31634 -64.21102 1613 ft 10 kts
2026-05-07 23:09 -31.31577 -64.21101 1618 ft 8 kts
2026-05-07 23:09 -31.31543 -64.21123 1619 ft 5 kts 274°
2026-05-07 23:10 -31.31549 -64.21155 1617 ft 3 kts 258°
2026-05-07 23:10 -31.31552 -64.21171 1615 ft 0 kts 258°